EHI
0 0 0 0 0 0 0 0 0 0 0 0 0 0 0 0 0 0 0 0 5 14 19 19 20 18 17 18 20 20 16 14 14 12 9 8 7 5 4 3 2 1 0 0 0 0 0 0 0
0 0 0 0 0 0 0 0 0 0 0 0 0 0 0 0 0 0 0 0 5 15 19 19 21 20 18 20 22 20 17 15 14 13 11 9 8 6 4 4 3 2 1 0 0 0 0 0 0
0 0 0 0 0 0 0 0 0 0 0 0 0 0 0 0 0 0 0 1 6 15 19 20 23 22 21 21 22 20 18 16 15 14 13 11 9 6 4 4 4 4 2 1 0 0 0 0 0
0 0 0 0 0 0 0 0 0 0 0 0 0 1 1 0 0 1 2 2 7 14 17 21 25 25 24 23 21 19 16 15 15 14 13 11 8 5 4 4 5 5 3 1 0 0 0 0 0
0 0 0 0 0 0 0 0 0 0 0 0 1 2 2 1 1 2 4 4 8 14 18 22 25 27 27 24 21 17 15 14 14 12 11 10 7 5 5 6 5 5 4 3 1 0 0 0 0
0 0 0 0 0 0 0 0 0 0 0 0 1 4 5 3 2 5 7 7 9 14 19 22 25 27 27 25 21 17 14 14 14 11 9 9 6 5 5 5 4 3 3 2 1 0 0 0 0
0 0 0 0 0 0 0 0 0 0 0 1 1 4 6 5 4 7 8 9 10 13 18 22 22 23 23 23 21 17 15 16 15 11 9 9 7 5 5 4 3 2 1 1 1 0 0 0 0
0 0 0 0 0 0 0 0 0 0 2 3 2 3 5 6 7 9 10 11 11 13 17 20 19 18 18 19 19 16 16 16 15 11 8 8 7 5 4 3 2 1 0 0 0 0 1 1 1
0 0 0 0 0 0 0 0 0 1 4 5 4 4 5 7 9 11 12 13 13 14 16 17 15 14 15 16 16 15 15 15 13 9 7 5 5 4 3 2 1 0 0 0 0 0 1 1 0
0 0 0 0 0 0 0 0 0 1 3 5 5 5 7 8 9 9 10 11 11 13 15 16 13 12 15 17 18 18 17 14 11 7 4 3 3 3 3 2 0 0 0 0 0 0 0 0 0
0 0 0 0 0 0 0 0 0 0 1 3 4 6 8 9 7 5 5 7 9 11 14 15 14 13 16 19 23 24 22 16 11 6 3 4 5 4 3 2 1 0 0 0 0 0 0 0 0
0 0 0 0 0 0 0 0 0 0 0 1 2 5 7 7 4 2 3 4 7 9 12 14 14 15 18 22 25 26 23 16 11 8 5 5 7 6 4 3 1 0 0 0 0 0 0 0 0
0 0 0 0 0 0 0 0 0 1 1 2 2 4 6 5 3 2 3 4 7 9 10 11 13 15 19 23 25 24 19 14 11 9 6 5 6 5 4 2 1 0 0 0 0 0 0 0 0
0 0 0 0 0 0 0 0 0 2 3 3 3 5 6 6 4 2 3 5 7 8 8 9 10 13 16 20 23 21 16 12 10 8 6 3 3 3 2 1 1 0 0 0 0 0 0 0 0
0 0 0 0 0 0 0 0 0 1 3 3 4 5 6 6 4 2 2 5 6 7 8 8 8 10 12 15 18 19 15 11 9 7 6 3 2 2 1 0 0 0 0 0 0 0 0 0 0
0 0 0 0 0 0 0 0 0 0 1 2 4 5 6 5 3 2 3 4 5 7 8 7 7 8 9 11 15 15 13 9 7 6 6 4 1 0 0 0 0 0 0 0 0 0 0 0 0
0 0 0 0 0 0 0 0 0 0 0 1 3 6 6 4 2 1 2 3 3 5 7 8 7 6 7 9 11 11 9 8 7 6 6 4 1 0 0 0 0 0 0 0 0 0 0 0 0
0 0 0 0 0 0 0 0 0 0 0 0 2 4 4 2 1 1 2 2 2 4 6 8 7 6 5 6 7 7 7 6 6 6 6 4 1 0 0 0 0 0 0 0 0 0 0 0 0
0 0 0 0 0 0 0 0 0 0 0 0 1 2 3 2 1 1 2 2 2 3 6 7 7 5 3 3 4 5 5 5 5 5 5 3 1 0 0 0 0 0 0 0 0 0 0 0 0
0 0 0 0 0 0 0 0 0 0 0 0 0 1 2 2 2 2 2 2 1 3 5 7 6 4 1 1 2 4 4 3 3 3 2 2 1 0 0 0 0 0 0 0 0 0 0 0 0
0 0 0 0 0 0 0 0 0 0 0 0 0 1 2 2 1 1 1 1 0 2 5 6 5 2 0 0 1 2 3 1 1 1 0 0 0 0 0 0 0 0 0 0 0 0 0 0 0
0 0 0 0 0 0 0 0 0 0 0 0 0 1 1 1 0 0 0 0 0 1 4 5 3 1 0 0 0 1 1 1 0 0 0 0 0 0 0 0 0 0 0 0 0 0 0 0 0
0 0 0 0 0 0 0 0 0 0 0 0 0 0 0 0 0 0 0 0 0 1 3 3 2 1 0 0 0 0 0 0 0 0 0 0 0 0 0 0 0 0 0 0 0 0 0 0 0
0 0 0 0 0 0 0 0 0 0 0 0 0 0 0 0 0 0 0 0 0 0 1 2 1 0 0 0 0 0 0 0 0 0 0 0 0 0 0 0 0 0 0 0 0 0 0 0 0
0 0 0 0 0 0 0 0 0 0 0 0 0 0 0 0 0 0 0 0 0 0 0 0 0 0 0 0 0 0 0 0 0 0 0 0 0 0 0 0 0 0 0 0 0 0 0 0 0
0 0 0 0 0 0 0 0 0 0 0 0 0 0 0 0 0 0 0 0 0 0 0 0 0 0 0 0 0 0 0 0 0 0 0 0 0 0 0 0 0 0 0 0 0 0 0 0 0
0 0 0 0 0 0 0 0 0 0 0 0 0 0 0 0 0 0 0 0 0 0 0 1 1 2 1 1 1 0 0 0 0 0 0 0 0 0 0 0 0 0 0 0 0 0 0 0 0
0 0 0 0 0 0 0 0 0 0 0 0 0 0 0 0 0 0 0 0 0 0 0 1 2 2 2 2 1 0 0 0 0 0 0 0 0 0 0 0 0 0 0 0 0 0 0 0 0
0 0 0 0 0 0 0 0 0 0 0 0 0 0 0 0 0 0 0 0 0 0 1 1 1 1 1 1 1 0 0 0 0 0 0 0 0 0 0 0 0 0 0 0 0 0 0 0 0
0 0 0 0 0 0 0 0 0 0 0 0 0 0 0 0 0 0 0 0 0 1 1 1 0 0 0 0 0 0 0 0 0 0 0 0 0 0 0 0 0 0 0 0 0 0 0 0 0
Wind_Speed
7 5 3 3 5 6 11 8 5 5 5 3 3 4 4 4 2 2 4 3 5 7 9 11 10 10 9 9 9 9 9 10 11 11 11 10 10 10 11 11 10 10 10 11 11 11 11 10 10
5 3 3 4 8 11 10 9 9 7 3 3 3 4 4 3 1 3 2 3 5 7 9 10 11 10 10 9 10 10 10 9 10 11 11 10 10 10 10 10 10 10 10 10 10 10 10 10 10
4 3 4 5 9 12 10 6 7 5 4 3 3 2 2 1 1 2 2 4 6 8 8 10 10 9 10 10 10 10 10 9 9 10 10 10 10 10 10 10 10 10 10 10 10 10 9 10 9
3 3 4 7 14 12 7 4 4 6 4 3 3 3 2 2 2 2 2 5 7 8 9 10 9 9 9 10 10 10 9 9 9 10 10 10 10 10 10 9 9 9 9 9 9 9 10 9 9
3 4 7 10 14 9 6 4 5 7 5 4 5 4 3 2 3 2 3 5 6 7 8 11 9 9 9 10 10 10 9 9 8 9 9 10 10 10 9 9 9 8 8 9 9 9 9 9 8
4 5 9 14 14 9 7 5 6 6 6 4 5 5 3 2 2 2 3 5 5 7 8 10 9 9 9 9 9 9 9 9 8 8 9 9 9 9 9 8 8 8 8 8 9 9 8 8 8
5 6 11 13 12 10 7 5 7 6 7 6 5 5 4 2 2 1 3 4 5 6 7 8 10 9 9 8 9 8 8 8 8 7 8 8 8 8 8 8 8 7 7 7 8 8 8 8 7
3 5 10 11 12 10 5 5 4 6 5 2 5 6 4 2 1 1 3 4 5 5 6 8 9 9 9 9 8 8 7 7 7 7 7 8 8 8 8 7 7 7 7 7 7 7 8 7 6
3 7 12 12 11 8 5 5 3 3 4 5 5 5 3 1 1 3 3 4 4 5 5 6 8 8 8 8 8 8 7 7 7 6 7 7 6 7 6 6 6 6 6 6 7 7 7 7 7
5 9 12 7 7 6 6 6 5 5 7 7 6 4 1 2 3 4 5 6 6 6 6 5 7 8 8 7 7 7 6 6 6 5 7 5 5 4 5 7 6 6 6 6 6 6 6 4 4
5 8 7 7 5 6 7 7 7 8 10 10 9 7 5 5 5 6 6 7 7 7 6 6 6 8 8 6 5 4 4 4 5 5 5 5 4 4 4 4 4 5 5 4 5 4 3 2 2
5 6 7 6 5 6 8 7 9 11 10 7 8 7 7 8 8 7 7 7 7 7 7 6 6 6 7 6 5 5 4 4 4 4 5 4 3 4 4 3 3 3 2 3 2 1 3 2 2
8 5 6 6 6 7 7 10 10 12 10 9 8 9 10 10 9 8 7 8 8 8 7 7 6 6 7 6 5 4 4 4 4 4 4 5 4 4 4 3 3 3 3 3 2 2 2 2 2
4 5 6 6 7 7 8 10 11 11 8 9 9 11 11 11 10 9 8 8 9 8 8 7 7 7 6 6 5 4 4 4 4 4 4 5 4 4 3 3 3 3 3 2 2 2 2 2 2
3 5 7 7 8 5 6 11 13 10 9 10 10 10 11 11 11 11 9 9 8 8 8 7 7 7 7 7 6 4 4 4 4 3 4 4 4 4 3 3 3 2 3 3 2 2 2 2 2
4 6 7 5 6 6 8 12 8 6 8 10 10 10 10 11 11 10 10 9 8 7 7 6 5 6 7 6 6 4 4 4 4 3 3 4 4 5 4 3 3 3 2 2 2 2 2 2 1
5 7 9 7 6 6 10 12 6 6 8 10 11 10 10 10 11 10 10 9 8 7 6 6 5 5 6 5 5 4 4 4 3 3 3 3 4 4 4 3 3 3 3 2 2 2 2 2 1
6 8 8 9 5 8 12 13 10 8 10 11 10 10 10 11 11 9 9 8 7 6 6 6 5 4 4 4 4 4 4 3 3 3 3 4 3 3 4 3 4 4 3 3 3 3 2 1 1
7 9 11 9 6 8 12 14 13 10 10 11 11 11 11 11 9 8 7 7 6 6 7 6 6 5 4 4 5 5 4 4 3 3 4 4 3 3 3 3 4 3 3 4 4 3 3 2 1
8 9 10 7 4 7 10 14 13 12 12 12 12 12 12 10 8 7 7 7 7 7 7 7 6 6 5 4 4 3 3 3 2 3 3 4 3 3 2 3 3 3 3 4 4 3 3 2 2
8 10 8 7 6 7 9 13 12 8 10 10 11 11 11 11 10 8 8 8 7 7 7 6 6 5 5 5 4 3 3 2 2 3 3 3 3 3 3 3 3 3 3 3 4 4 4 3 2
8 6 7 7 6 5 5 8 9 8 9 9 9 10 10 10 10 9 8 8 8 7 6 6 6 4 4 6 6 6 5 4 4 3 3 3 3 3 3 2 3 3 3 3 4 4 3 4 3
6 4 5 6 6 7 6 8 8 6 9 9 8 8 9 9 10 9 8 8 7 5 5 5 5 4 4 5 6 7 5 4 3 3 4 4 3 3 3 3 3 3 3 3 4 3 3 3 3
3 2 3 4 4 8 8 9 8 6 8 7 6 6 7 8 9 8 6 6 4 4 5 5 5 5 5 5 5 6 7 6 5 5 4 4 3 3 3 3 2 3 3 3 3 3 3 2 3
3 2 2 3 4 6 3 7 9 5 6 6 5 4 5 6 7 7 6 5 5 6 6 5 6 5 5 5 5 6 6 7 7 6 5 4 3 3 4 3 3 3 3 3 3 3 3 3 3
5 4 3 4 4 3 4 8 6 3 3 4 4 4 4 4 5 6 6 6 6 5 5 5 6 6 5 5 5 5 6 5 4 5 4 4 3 3 4 4 4 4 4 4 4 3 3 3 3
4 4 3 3 4 5 5 6 6 4 4 3 4 4 4 3 4 4 5 5 5 5 5 5 6 6 5 5 5 5 5 5 4 4 4 3 3 3 4 4 4 4 4 4 4 3 3 3 3
1 2 3 4 4 5 5 5 4 3 4 3 3 4 4 3 2 2 3 4 4 4 4 5 5 6 5 5 5 4 5 5 4 4 4 4 4 4 4 4 4 4 4 4 4 3 3 3 3
2 3 2 3 4 5 5 3 0 3 4 4 4 4 4 3 2 2 2 2 2 3 3 4 5 5 5 5 4 4 5 5 5 4 4 4 4 4 4 4 4 4 4 4 4 4 4 4 4
3 3 4 3 4 4 5 4 1 3 4 4 5 4 3 3 3 2 1 1 2 2 2 3 3 4 4 4 4 4 4 5 4 4 4 4 4 4 4 4 4 4 3 4 4 4 4 4 4
Wind_Direction
322 309 262 228 218 224 230 217 207 186 189 190 183 201 210 207 223 73 65 139 143 152 154 155 150 145 141 138 133 130 125 127 125 122 121 121 122 122 119 118 115 113 111 108 106 102 99 97 95
316 293 226 222 229 222 222 215 208 200 155 144 179 205 201 203 14 53 94 139 151 152 156 155 148 147 145 141 137 131 130 126 128 126 124 123 123 125 122 119 116 115 113 109 107 105 102 99 96
293 263 229 214 227 229 219 194 202 179 164 179 179 212 232 175 99 70 69 153 155 151 156 147 146 148 147 145 140 135 133 130 131 131 128 127 125 124 123 120 117 115 113 111 109 106 105 101 97
251 207 219 228 226 231 239 194 175 172 186 205 205 177 154 49 14 29 109 154 152 152 155 145 148 148 148 147 144 140 136 135 131 136 133 131 127 124 122 120 117 115 115 115 112 108 102 99 96
242 215 211 223 231 226 231 216 189 192 192 193 210 209 187 80 32 78 131 152 151 149 153 149 150 151 148 146 143 141 139 140 134 138 136 133 131 127 124 123 119 118 119 118 116 111 106 102 101
211 214 220 225 224 220 219 211 208 217 209 205 213 214 198 98 60 102 142 153 152 147 151 148 147 147 147 144 142 139 141 142 137 135 137 134 133 132 129 127 122 118 121 122 120 116 111 106 103
226 214 229 232 230 223 215 210 218 222 222 216 221 216 190 159 61 111 153 153 148 149 153 152 156 155 148 142 141 139 140 141 136 132 137 133 131 132 129 127 126 122 121 123 124 123 118 111 107
254 224 225 226 228 228 206 205 235 236 233 236 236 225 210 198 155 166 155 155 153 154 159 158 161 161 160 156 142 137 136 133 128 126 129 128 129 129 125 125 120 120 117 116 118 118 118 115 110
226 226 226 221 222 220 195 208 211 262 233 231 246 270 291 151 184 171 172 173 169 168 167 166 166 164 164 164 153 147 140 129 127 126 125 141 148 143 139 120 113 117 116 116 115 114 115 117 114
212 228 232 231 233 226 211 226 219 217 230 236 239 250 252 190 201 194 194 192 187 182 179 173 174 169 167 165 162 163 156 152 154 149 156 159 149 141 136 116 110 114 116 120 113 117 132 147 130
214 233 243 242 247 241 224 230 228 231 236 238 238 232 217 215 220 218 210 201 196 187 182 181 177 175 171 168 166 164 161 160 157 153 163 159 149 145 145 142 137 136 140 133 126 149 145 141 126
223 238 248 249 251 241 237 234 235 237 248 259 250 229 221 220 222 224 218 210 202 192 187 184 183 182 177 172 170 167 164 162 155 156 166 164 157 160 156 157 155 158 155 149 155 154 138 136 128
230 238 252 251 255 249 245 241 245 247 254 254 243 223 222 225 227 230 229 216 207 200 190 187 185 186 183 174 172 170 168 163 156 157 171 171 165 165 161 161 161 163 160 165 163 157 149 141 125
232 240 256 258 253 251 245 253 247 244 242 239 232 227 225 226 228 227 228 221 211 205 196 189 190 192 189 182 176 174 170 158 156 163 173 177 171 170 167 164 164 166 166 168 170 163 155 137 128
236 248 254 249 246 239 242 248 237 238 232 234 233 234 230 231 229 228 226 224 217 208 197 191 191 196 194 188 178 174 170 162 162 166 175 176 176 175 173 172 171 167 165 165 160 153 150 136 135
226 230 241 236 237 230 226 245 235 227 228 235 233 233 232 230 231 230 228 224 219 211 203 190 188 197 195 191 180 173 171 164 167 169 173 176 182 180 178 177 173 167 170 169 160 165 165 161 161
214 234 245 256 240 231 228 249 249 236 239 240 236 232 228 230 231 231 230 221 215 207 201 190 185 196 194 186 180 171 168 165 167 167 170 179 188 187 183 183 173 171 177 175 172 177 181 176 171
239 250 252 256 251 240 239 250 259 244 243 244 240 234 228 230 231 229 230 219 211 204 201 191 188 195 187 178 170 164 164 165 164 169 174 176 185 190 186 182 179 176 179 179 181 176 172 183 193
249 255 264 271 273 256 248 255 261 251 243 243 239 236 232 230 231 227 225 219 208 201 199 192 191 193 181 181 176 175 176 173 171 175 176 178 184 188 193 180 179 183 187 189 183 179 176 177 192
237 252 266 275 267 260 259 263 263 250 239 240 239 236 232 233 230 225 217 211 207 203 198 196 195 195 190 189 185 178 167 167 166 164 177 182 179 182 190 186 183 186 185 191 188 191 193 181 216
240 241 260 275 287 260 265 262 246 239 232 235 240 240 231 227 227 222 216 208 206 203 198 197 199 199 194 181 166 155 145 149 171 177 181 181 181 185 186 204 195 189 186 191 194 198 205 194 202
248 243 257 264 262 267 255 271 254 248 237 235 238 235 231 225 226 223 218 211 211 202 193 196 195 195 192 184 180 177 182 187 192 186 181 181 187 190 188 195 201 195 199 197 197 205 214 205 203
244 266 250 254 256 267 249 259 262 241 245 245 240 234 231 228 224 220 217 216 211 202 192 196 191 187 190 194 191 189 192 195 183 180 183 186 186 191 192 189 201 195 199 207 204 208 213 217 220
235 244 228 227 237 253 242 243 267 235 241 246 243 232 230 225 228 223 216 214 203 198 197 192 184 186 191 196 197 199 195 190 187 188 188 189 191 197 195 192 203 202 200 205 200 205 210 213 222
211 219 228 214 220 248 219 240 257 248 242 250 258 250 237 228 223 216 211 208 202 195 189 185 185 190 194 197 202 204 202 198 199 197 196 192 195 205 204 195 201 207 202 199 193 197 212 217 220
214 222 233 253 258 263 217 243 262 266 275 278 278 281 268 235 227 217 209 204 199 193 189 188 190 195 199 200 206 206 203 202 202 203 203 205 205 209 209 204 201 208 200 193 193 194 206 221 225
196 210 262 265 275 265 249 259 278 292 302 294 284 281 273 253 234 221 212 206 200 200 199 197 199 203 204 204 203 209 203 208 204 199 203 208 208 201 202 206 201 204 201 195 191 196 203 214 228
269 182 200 212 247 253 260 259 279 307 298 295 284 285 289 292 266 227 217 215 213 209 207 205 207 206 207 207 205 210 204 204 201 199 201 202 203 200 195 195 200 202 205 200 196 196 204 209 223
170 181 219 222 265 268 269 267 199 270 297 297 294 296 294 295 291 263 232 219 203 200 205 205 205 204 201 202 204 205 203 197 197 199 202 202 199 197 197 197 200 204 208 202 204 203 201 209 219
227 215 206 225 240 251 266 276 46 296 315 317 309 307 300 299 296 289 244 222 199 200 211 210 205 203 201 198 198 201 200 193 193 197 198 196 200 200 202 200 199 202 204 205 210 209 208 209 216